This is the latest recevied weather packets stored in our database for station/object PD2BVG. If no packets are shown the sender has not sent any weather packets the latest 10 day(s).
| Time | Temp. | Humidity | Pressure | Rain* | Wind** | Luminosity | Snow |
|---|---|---|---|---|---|---|---|
| 1777553723 | 19.44° C | 26% | 1024.5 hPa | 0 mm | - | 777 W/m² | - |
| 1777553664 | 19.44° C | 27% | 1024.6 hPa | 0 mm | - | 777 W/m² | - |
| 1777553604 | 19.44° C | 27% | 1024.6 hPa | 0 mm | - | 781 W/m² | - |
| 1777553544 | 19.44° C | 28% | 1024.7 hPa | 0 mm | - | 781 W/m² | - |
| 1777553483 | 19.44° C | 28% | 1024.6 hPa | 0 mm | - | 784 W/m² | - |
| 1777553423 | 19.44° C | 27% | 1024.6 hPa | 0 mm | - | 783 W/m² | - |
| 1777553362 | 19.44° C | 26% | 1024.7 hPa | 0 mm | - | 786 W/m² | - |
| 1777553302 | 19.44° C | 26% | 1024.8 hPa | 0 mm | - | 783 W/m² | - |
| 1777553241 | 19.44° C | 27% | 1024.6 hPa | 0 mm | - | 788 W/m² | - |
| 1777553181 | 19.44° C | 27% | 1024.7 hPa | 0 mm | - | 788 W/m² | - |
| 1777553121 | 19.44° C | 28% | 1024.7 hPa | 0 mm | - | 788 W/m² | - |
| 1777553061 | 19.44° C | 27% | 1024.7 hPa | 0 mm | - | 788 W/m² | - |
| 1777553000 | 19.44° C | 27% | 1024.9 hPa | 0 mm | - | 790 W/m² | - |
| 1777552940 | 19.44° C | 27% | 1024.8 hPa | 0 mm | - | 786 W/m² | - |
| 1777552879 | 19.44° C | 27% | 1025 hPa | 0 mm | - | 790 W/m² | - |
| 1777552817 | 19.44° C | 26% | 1024.9 hPa | 0 mm | - | 790 W/m² | - |
| 1777552755 | 19.44° C | 27% | 1024.9 hPa | 0 mm | - | 793 W/m² | - |
| 1777552695 | 19.44° C | 27% | 1024.9 hPa | 0 mm | - | 791 W/m² | - |
| 1777552633 | 19.44° C | 27% | 1025 hPa | 0 mm | - | 793 W/m² | - |
| 1777552572 | 19.44° C | 27% | 1025 hPa | 0 mm | - | 797 W/m² | - |
| 1777552513 | 19.44° C | 27% | 1024.9 hPa | 0 mm | - | 795 W/m² | - |
| 1777552451 | 19.44° C | 26% | 1024.9 hPa | 0 mm | - | 795 W/m² | - |
| 1777552391 | 19.44° C | 26% | 1025.1 hPa | 0 mm | - | 798 W/m² | - |
| 1777552330 | 19.44° C | 26% | 1025.1 hPa | 0 mm | - | 798 W/m² | - |
| 1777552271 | 19.44° C | 27% | 1025 hPa | 0 mm | - | 798 W/m² | - |
* Rain latest hour (hover to see other rain measurements)
** Current wind speed in m/s (hover to see current wind gust speed)